Sie sind vermutlich noch nicht im Forum angemeldet - Klicken Sie hier um sich kostenlos anzumelden  

Synchrondatenbank (von Arne Kaul) | Deutsche Synchronkartei | Seriensynchron - SeSyDaB | dubDB | Die vergessenen Filme || Datenschutz
Sie können sich hier anmelden
Dieses Forum hat 3.274 Themen
und zur Zeit 38.748 Beiträge
Sie haben keine Schreibrechte
 Spielfilme 1990 bis 2009  »Neues Thema erstellen«
Forum Information
   Betreff Absender Antworten Zugriffe Letzter Beitrag
Direct Hit - Im Todeskreis der Angst (USA 1994) Silenzio 0 83 26.04.2018 23:26
Bill & Teds verrückte Reise in die Zukunft (1991) dlh 12 623 25.04.2018 17:03
The Last Match - Der letzte Fight (I/USA 1991) Silenzio 0 105 22.04.2018 22:40
Dario Argentos "Sleepless" (2001) (1, 2) Slartibartfast 16 776 21.04.2018 11:42
Serial Mom - Warum lässt Mama das Morden nicht? (1993) dlh 6 555 19.04.2018 18:45
Story Of Ricky (1, 2) ElEf 23 1.186 17.04.2018 15:41
Prayers for Bobby (2008; DF: 2009) Frank Brenner 2 110 17.04.2018 15:24
Bolt - Ein Hund für alle Fälle (2008) Frank Brenner 11 1.433 15.04.2018 13:09
LOONEY TUNES Back In Action neusynchrosmachenalleskaputt 14 1.301 10.04.2018 15:47
Breaking the Waves (DK/NO/SE/FR/NL 1996) Silenzio 3 119 10.04.2018 01:22
Freundschaft, Liebe, Rache (Vento di mare) Gianfranco Mingozzi 1991 kogenta 0 77 10.04.2018 01:13
Lapitch, der kleine Schuhmacher (D/HR 1997) Edigrieg 5 159 08.04.2018 19:41
Power Rangers - Der Film (USA, 1995) hudemx 12 430 04.04.2018 17:46
Bube, Dame, Koenig grAS (Lock, stock and two smoking barrels, GB) rote Blume 13 1.350 04.04.2018 10:28
Hellraiser III: Hell on Earth (1992) WasGehtSieDasAn 11 573 30.03.2018 19:30
Mr. Jones (USA 1993) Silenzio 0 136 26.03.2018 22:24
Teuflisch (USA 2000) VanToby 3 164 26.03.2018 01:37
2 Tage in L.A. (USA 1996) Wilkins 0 135 25.03.2018 17:08
Barbie als Prinzessin und das Dorfmädchen Besetzungsliste Mew Mew 1 1.171 21.03.2018 21:41
Die Asche meiner Mutter (1999; DF: 2000) Frank Brenner 3 193 20.03.2018 20:14
Nightmare Lover (USA 1993) Silenzio 5 169 19.03.2018 02:09
Bernard & Bianca im Känguruland (1990) Edigrieg 3 280 17.03.2018 12:49
The Invincible Iron Man (2007) hudemx 1 305 16.03.2018 12:24
August (1995; DF: 1996) Frank Brenner 6 288 14.03.2018 16:30
Fires Within (USA 1991) Silenzio 0 111 13.03.2018 00:36
Die Borgia (2006) Torben 2 129 12.03.2018 23:32
Jeanne d'Arc - Die Frau des Jahrtausends (1999) Torben 3 219 12.03.2018 18:34
Der Zauberpudding (Australien 2000 / DF 2002) Edigrieg 9 329 11.03.2018 21:23
The Skulls 3, am Samstag 12.04. Das Auge 6 503 09.03.2018 16:14
Timber Falls (USA 2007) Mew Mew 4 532 05.03.2018 00:40
Meine ... und ich (3 Filme) VanToby 5 372 04.03.2018 22:52
Super Mario Bros. (1993) dlh 5 609 21.02.2018 15:37
Kikujiros Sommer (1999) dlh 2 237 19.02.2018 20:14
Das Rückgrat des Teufels (2001) Wilkins 2 192 18.02.2018 01:33
Cronos (1993) (DF: 1996) Wilkins 4 208 18.02.2018 01:18
Der Mann, der niemals starb (USA 1994) Silenzio 0 163 15.02.2018 02:02
Die Unglaublichen - The Incedible (1, 2) Scooby Doo 20 3.759 13.02.2018 19:57
Die Noorderlinger (Niederlande 1992) Silenzio 1 187 13.02.2018 06:46
Deep Impact (USA 1998) Silenzio 9 1.348 12.02.2018 17:01
Die nackte Kanone 33 1/3 (1994) Frank Brenner 6 623 05.02.2018 11:00
 Sprung Seite « zurück  1  2  3  4  5  6  7  8 - 82  weiter »

Farb-Legende: blau = Spekulation, orange = Trailer-Besetzung, grün = endgültige Besetzung, rot = Korrektur/Ergänzung zur endgültigen Besetzung

Wir lie... also, wir finden Synchron ganz in Ordnung.
Erreichbar unter
215072.homepagemodules.de -- synchron-forum.de.vu


Weitere Smileys auf www.smilie-harvester.de
Xobor Forum Software von Xobor | Forum, Fotos, Chat und mehr mit Xobor